Regional Weather Roundup
Issued by NWS Midland/Odessa, TX

Skip options and go directly to product.
Home | Oldest Version | Previous Version | Current Version | All | Text Only | Save Text | Print | Product List | Glossary Off

Skip product version selection by date and time.   

563
ASUS44 KMAF 142310
RWRMAF
MIDLAND AREA WEATHER ROUNDUP
NATIONAL WEATHER SERVICE MIDLAND TX
500 PM CST SUN FEB 14 2016

...IN SOUTHWEST TEXAS AND SOUTHEAST NEW MEXICO...

CITY           SKY/WX    TMP DP  RH WIND       PRES   REMARKS
ALPINE         SUNNY     67  26  20 NE9       30.00F
ANDREWS        FAIR      65  24  20 CALM      29.89F
ARTESIA        CLOUDY    64  25  22 S5        29.90F
BIG SPRING     SUNNY     63  31  30 N3        29.89F
CARLSBAD       SUNNY     66  23  19 VRB5      29.89F
DRYDEN           N/A     81  27  14 NW14      29.82F
FORT STOCKTON  SUNNY     68  30  24 NW7       29.90F
GUAD PASS      SUNNY     69   8   9 W20G25    29.97F
HOBBS          SUNNY     64  18  16 CALM      29.90F
MARFA          SUNNY     72  13  10 W21G28    29.97S
MIDLAND AIRPK  SUNNY     67  29  23 NW7       29.89S
MIDLAND INTL   SUNNY     68  30  24 NW6       29.88F
ODESSA         SUNNY     67  27  22 N7        29.90S
PECOS          SUNNY     69  26  20 W5        29.89F
PRESIDIO       FAIR      80  19  10 CALM      29.86F
SEMINOLE       SUNNY     65  22  19 NW6       29.91S
SNYDER           N/A     64  33  31 NE3       29.87F
WINK           SUNNY     69  25  19 N5        29.87F
$$
...OTHER STATIONS IN TEXAS...

CITY           SKY/WX    TMP DP  RH WIND       PRES   REMARKS
ABILENE        SUNNY     61  40  45 NW5       29.85F
AMARILLO       CLOUDY    55  20  25 SW5       29.90R
AUSTIN         CLOUDY    74  53  48 S14       29.83F
BROWNSVILLE    SUNNY     74  60  61 S25G35    29.86F
CORPUS CHRISTI PTSUNNY   75  57  53 S28G39    29.83S
DALLAS FTW     PTSUNNY   67  52  58 SE5       29.82F
DEL RIO        MOSUNNY   74  51  44 CALM      29.81S
EL PASO        MOSUNNY   74   5   7 W7G18     29.92F
HOUSTON INT    CLOUDY    70  54  56 S14       29.91F
LUBBOCK        MOSUNNY   60  11  14 S3        29.87F
SAN ANGELO     SUNNY     73  42  32 NW9       29.82F
SAN ANTONIO    PTSUNNY   72  54  53 S10       29.83F
WACO           PTSUNNY   70  52  52 S15       29.83F
WICHITA FALLS  NOT AVBL
$$
...OTHER LOCATIONS IN NEW MEXICO...

CITY           SKY/WX    TMP DP  RH WIND       PRES   REMARKS
ALAMAGORDO     SUNNY     72   5   7 NW8       29.94S
ALBUQUERQUE    PTSUNNY   63   1   8 N16G24    29.99F
CANNON AFB     SUNNY     61  16  17 SW16      29.88F
CLOVIS         SUNNY     59  21  23 SW14      29.89F
HOLLOMAN AFB   SUNNY     71   4   7 VRB7      29.92S
ROSWELL        CLOUDY    63  21  20 SW6       29.90F
RUIDOSO          N/A     55   5  13 W17G25    30.04R
SANTA FE       CLOUDY    59  10  14 N14       29.97R
TRUTH OR CONSE MOSUNNY   71   5   7 SW10      29.94F
TUCUMCARI      CLOUDY    63  17  17 SW20G28   29.82F
$$

USA.gov is the U.S. government's official web portal to all federal, state and local government web resources and services.